www.pogodaiklimat.ru

Погода и климат >> Архив погоды >> Россия >> Астраханская область >> Черный Яр


ПОГОДА в Черный Яр

  • Прогноз погоды в Черный Яр
  • Монитор погоды в Черный Яр

АРХИВ ПОГОДЫ в Черный Яр

Время (UTC), дата Ветер
(напр.,м/с)
 
Видим.   Явления Облачность Т
(С)
Тd
(С)
f
(%)
Тe
(С)
Тes
(С)
Комфортность P
(гПа)
Po
(гПа)
Тmin
(С)
Tmax
(С)
R
(мм)
R24
(мм)
S
(см)
15 16.05 СВ 1 10 км 1/0
[Ci fib]
+30.3 +8.1 25 +29 +31 жарко 1013.8 1013.2 +31.4
18 16.05 С 2 10 км 9/0
[Ci fib]
+22.9 +12.2 51 +26 +26 жарко 1014.3 1013.7
21 16.05 СЗ 1 10 км 9/0
[Ci fib]
+19.5 +12.9 66 +22 +22 комфорт 1014.4 1013.7
00 17.05 З 2 10 км 9/0
[Ci fib]
+17.6 +12.1 70 +18 +18 1014.3 1013.7
03 17.05 СЗ 2 10 км 10/0
[Ac cast Ci fib]
+19.8 +15.7 77 +23 +24 комфорт 1014.4 1013.7 +17.4
06 17.05 С 3 10 км 3/0
[Ci fib]
+25.1 +15.3 55 +28 +37 жарко 1014.7 1014.1
09 17.05 С 5 10 км 10/1 1000 м
[Cu med, cong Ci fib]
+28.5 +14.0 41 +30 +37 жарко 1014.5 1013.9
12 17.05 С 4
{10}
10 км 4/1 1000 м
[Cu hum Ac cuf Ci fib]
+27.6 +13.6 42 +29 +35 жарко 1014.3 1013.7
15 17.05 С 4 10 км 1/0
[Ci fib]
+24.4 +13.1 49 +26 +27 жарко 1014.3 1013.7 +28.9
18 17.05 С 4 10 км ясно +20.1 +10.4 54 +22 +22 комфорт 1015.6 1014.9
21 17.05 СВ 4
{10}
10 км 8/0
[Ac cast]
+16.8 +5.7 48 +16 +16 1016.4 1015.7
00 18.05 СВ 4 10 км 10/0
[Ac cast]
+15.0 +4.1 48 +14 +14 1016.7 1016.1
03 18.05 СВ 3 10 км 10/0
[Ac cast Ci fib]
+14.4 +2.5 45 +14 +15 1016.8 1016.1 +14.1
06 18.05 СВ 5 10 км 10/0
[Ac cast Ci fib]
+19.0 +0.6 29 +19 +21 1016.7 1016.1
09 18.05 СВ 4 10 км 10/0
[Ac cast Ci fib]
+22.1 +0.2 23 +21 +29 комфорт 1016.0 1015.4
12 18.05 СВ 3 10 км 8/0
[Ci fib]
+23.4 -0.7 20 +22 +30 комфорт 1014.4 1013.8
15 18.05 С 2 10 км 1/0
[Ac As]
+22.4 -1.1 21 +21 +23 комфорт 1013.4 1012.8 +23.7
18 18.05 С 2 10 км ясно +16.0 +4.1 45 +16 +16 1013.5 1012.8
21 18.05 СВ 1 10 км ясно +14.4 +4.5 51 +15 +15 1013.1 1012.4
00 19.05 В 1 10 км ясно +10.1 +4.9 70 +10 +10 1012.5 1011.8
03 19.05 СЗ 1 10 км ясно +14.3 +10.4 77 +15 +17 1012.9 1012.2 +9.6
06 19.05 СВ 1 10 км 1/0
[Ci fib]
+22.6 +3.5 29 +23 +36 комфорт 1012.8 1012.2
09 19.05 СВ 4 10 км 1/0
[Ci fib]
+24.7 +4.1 26 +24 +36 комфорт 1012.0 1011.4
12 19.05 С 3 10 км 3/0
[Ci fib]
+26.0 +1.0 20 +24 +33 комфорт 1011.5 1010.9
15 19.05 СЗ 3 10 км 1/0
[Ci fib]
+25.2 +2.0 22 +24 +25 комфорт 1011.4 1010.8 +26.4
18 19.05 СЗ 2 10 км 1/0
[Ci fib]
+19.6 +5.0 38 +21 +21 комфорт 1012.9 1012.2
21 19.05 штиль 0 10 км ясно +13.8 +6.9 63 +14 +14 1013.3 1012.6
00 20.05 СВ 3 10 км ясно +13.5 +4.7 55 +13 +13 1014.4 1013.8
03 20.05 СВ 3 10 км ясно +12.6 +4.0 56 +11 +13 1017.2 1016.5 +11.6
06 20.05 С 5 10 км ясно +17.4 -0.9 29 +17 +23 1018.2 1017.5
09 20.05 С 4
{11}
10 км пыльный позёмок ясно +19.1 -3.1 22 +19 +31 опасность
простуды
1019.0 1018.3
12 20.05 С 4
{10}
10 км 1/0
[Ci fib]
+20.0 -3.9 20 +20 +27 1018.9 1018.2
15 20.05 С 3 10 км 4/0
[Ci fib]
+19.3 -2.1 23 +20 +21 1019.0 1018.3 +20.4
18 20.05 В 1 10 км 4/0
[Ci fib]
+13.6 +3.5 50 +14 +14 1020.1 1019.4
21 20.05 СВ 1 10 км 8/0
[Ci fib]
+11.7 +2.2 52 +12 +12 1020.6 1020.0
00 21.05 В 1 10 км 4/0
[Ci fib]
+10.4 +1.5 54 +10 +10 1021.3 1020.6
03 21.05 Ю 2 10 км 3/0
[Ci fib]
+12.5 +2.6 51 +12 +14 1022.8 1022.1 +9.8
06 21.05 В 2 10 км ясно +18.4 -1.1 27 +19 +30 1023.7 1023.0
09 21.05 СВ 3 10 км ясно +20.3 -1.3 23 +21 +35 комфорт 1023.5 1022.8
12 21.05 СВ 3 10 км 5/0
[Ci fib]
+22.0 -1.8 20 +21 +29 комфорт 1022.3 1021.6
15 21.05 СВ 2 10 км 9/0
[Ci fib]
+21.6 -1.7 21 +21 +22 комфорт 1021.4 1020.7 +22.1
18 21.05 ЮВ 1 10 км 9/0
[Ci fib]
+14.6 +3.4 47 +15 +15 1022.0 1021.3
21 21.05 ЮВ 1 10 км 9/0
[Ci fib]
+13.8 +4.2 52 +14 +14 1022.0 1021.3
00 22.05 Ю 3 10 км 9/0
[Ci fib]
+13.4 +3.0 49 +12 +12 1021.5 1020.8
03 22.05 Ю 2 10 км 9/0
[Ci fib]
+13.7 +4.6 54 +13 +15 1021.7 1021.0 +11.4
06 22.05 ЮВ 3 10 км 9/0
[Ci fib]
+19.9 +2.3 31 +20 +28 1020.9 1020.2
09 22.05 В 4 10 км 9/0
[Ci sp]
+22.2 +0.2 23 +22 +31 комфорт 1019.1 1018.5
12 22.05 В 3 10 км 10/0
[Cs]
+22.4 -1.7 20 +21 +29 комфорт 1017.3 1016.7
15 22.05 В 3 10 км 10/0
[Ac cast]
+21.6 +5.4 35 +22 +22 комфорт 1016.2 1015.6 +23.5
18 22.05 В 2 10 км 10/0
[Ac cast]
+17.3 +3.7 40 +18 +18 1016.4 1015.7
21 22.05 ЮВ 4 10 км 4/0
[Ac und]
+16.0 +4.4 46 +15 +15 1015.3 1014.7
00 23.05 ЮВ 3 10 км 8/0
[Ac cast]
+14.2 +4.7 53 +13 +13 1014.3 1013.7
03 23.05 ЮВ 3 10 км 10/0
[Ac cuf]
+14.8 +7.5 62 +14 +15 1013.0 1012.3 +14.0
06 23.05 ЮВ 3 10 км 10/10 600 м
[Sc]
+18.8 +8.1 50 +19 +19 1012.1 1011.5
09 23.05 ЮВ 3 10 км 10/4 1000 м
[Cu hum Ac cast]
+23.1 +8.9 40 +24 +27 комфорт 1010.1 1009.4

 

Местоположение метеостанции Черный Яр (Астраханская область, Россия): широта 48.07 долгота 46.12 высота над уровнем моря 5 м.

В архиве по умолчанию представлена погода в Черный Яр за последнюю неделю. Архивные данные за месяц целиком и за предыдущие месяцы, начиная с января 2011 года, Вы можете получить, выбрав интересующий диапазон дат из раскрывающегося списка и нажав кнопку "Ввод!".


*Определитесь, кто Вы:
робот инопланетянин человек

Внимание! Время в таблицах - всемирное. Для получения местного времени необходимо прибавить поправку, которая равна 4 ч.

Смотрите также архив погоды в соседних городах и на ближайших метеорологических станциях:

Погода в Верхнем Баскунчаке (Астраханская область, Россия) (48 км)
Погода в Юсте (Калмыкия, Россия) (106 км)
Погода в Малых Дербетах (Калмыкия, Россия) (107 км)
Погода в Харабали (Астраханская область, Россия) (113 км)
Погода в Урде (Западно-Казахстанская область, Казахстан) (124 км)
Погода в Эльтоне (Волгоградская область, Россия) (130 км)
Погода в Волгограде город (Волгоградская область, Россия) (140 км)
Погода в Кетченерах (Калмыкия, Россия) (143 км)
Погода в Волгограде (Волгоградская область, Россия) (151 км)
Погода в Жанибеке (Западно-Казахстанская область, Казахстан) (156 км)

Пояснения к столбцам:

Ветер - указаны скорость ветра в м/с - средняя за 10 мин, порывы в срок и между сроками (в фигурных скобках) и направление, откуда дует ветер: С - северный, СВ - северо-восточный, В - восточный, ЮВ - юго-восточный, Ю - южный, ЮЗ - юго-западный, З - западный, СЗ - северо-западный.
Видимость - горизонтальная дальность видимости в метрах или километрах. При видимости от 1 до 10 км при отсутствии осадков обычно наблюдается дымка, при ухудшении видимости до 1 км и менее - туман. В сухую погоду видимость может ухудшаться дымом, пылью или мглою.
Явления - указаны атмосферные явления, наблюдавшиеся в срок или в последний час перед сроком; фигурными скобками обозначены явления, наблюдавшиеся между сроками (за 1-3 часа до срока); квадратными скобками обозначены град или гололедные отложения с указанием их диаметра в мм.
Облачность - указаны через наклонную черту общая и нижняя облачность в баллах и высота нижней границы облаков в метрах; квадратными скобками обозначены формы облаков: Ci - перистые, Cs - перисто-слоистые, Cc - перисто-кучевые, Ac - высококучевые, As - высокослоистые, Sc - слоисто-кучевые, Ns - слоисто-дождевые, Cu - кучевые, Cb - кучево-дождевые. Подробнее классификацию облаков см. в Атласе облаков (PDF).
T - Температура воздуха - температура, измеренная на высоте 2 м над землей.
Td - Температура точки росы - температура, при понижении до которой содержащийся в воздухе водяной пар достигнет насыщения.
f - Относительная влажность воздуха - влажноcть воздуха, измеренная на высоте 2 м над землей.
Te - Эффективная температура - температура, которую ощущает одетый по сезону человек в тени. Характеристика душности погоды. При расчете учитывается влияние влажности воздуха и скорости ветра на теплоощущения человека.
Tes - Эффективная температура на солнце - температура, которую ощущает человек, с поправкой на солнечный нагрев. Характеристика знойности погоды. Зависит от высоты солнца над горизонтом, облачности и скорости ветра. Ночью, в пасмурную погоду, а также при ветре 12 м/с и более поправка равна нулю.
P - Атмосферное давление - приведенное к уровню моря атмосферное давление.
Po - Атмосферное давление - измеренное на уровне метеостанции атмосферное давление.
Tmin - Минимальная температура - минимум температуры воздуха на высоте 2 м над землей.
Tmax - Максимальная температура - максимум температуры воздуха на высоте 2 м над землей.
R - Количество осадков - Количество выпавших осадков за период времени, мм. При наведении курсора мыши на число - период времени, за который выпало указанное количество осадков.
R24 - Количество осадков - Количество выпавших осадков за 24 часа, мм.
S - Снежный покров - Высота снежного покрова, см. При наведении курсора мыши на число - состояние снежного покрова и степень покрытия местности в баллах.